PGT861J LTFJ-EDDM

Flight info

Callsign PGT861J
Flight time N/A
Altitude 36000
Route VADEN DCT BAKLO DCT XANEX DCT UTEKA DCT DONIV DCT BABIT DCT GOTAR DCT AMADI Q113 NAPSA NAPSA4A
Aircraft A320/M-SDE3FGHIRWY/LB1

Departure

Time 2026-04-29 13:10
Airport Istanbul Sabiha Gökçen International Airport (LTFJ)

Arrival

Time N/A
Airport Munich Airport (EDDM)
Time Latitude Longitude Altitude Speed Heading
2026-04-29 12:29 40.90473 29.31282 311 ft 0 kts 334°
2026-04-29 12:56 40.90472 29.31283 311 ft 2 kts 334°
2026-04-29 12:57 40.90449 29.31299 311 ft 4 kts 329°
2026-04-29 12:57 40.90427 29.31319 311 ft 4 kts 312°
2026-04-29 12:57 40.90416 29.31345 311 ft 4 kts 255°
2026-04-29 12:57 40.90418 29.31352 311 ft 0 kts 246°
2026-04-29 13:03 40.90415 29.31344 311 ft 4 kts 246°
2026-04-29 13:03 40.90406 29.31318 311 ft 3 kts 246°
2026-04-29 13:04 40.90399 29.31298 310 ft 2 kts 245°
2026-04-29 13:04 40.90380 29.31246 310 ft 11 kts 243°
2026-04-29 13:04 40.90346 29.31157 311 ft 10 kts 244°
2026-04-29 13:04 40.90319 29.31081 311 ft 9 kts 244°
2026-04-29 13:05 40.90294 29.31014 310 ft 10 kts 244°
2026-04-29 13:05 40.90262 29.30927 310 ft 10 kts 244°
2026-04-29 13:05 40.90221 29.30872 311 ft 10 kts 187°
2026-04-29 13:05 40.90134 29.30921 310 ft 17 kts 156°
2026-04-29 13:06 40.90041 29.30855 310 ft 18 kts 244°
2026-04-29 13:06 40.89984 29.30700 310 ft 20 kts 244°
2026-04-29 13:06 40.89921 29.30529 311 ft 21 kts 244°
2026-04-29 13:06 40.89853 29.30342 309 ft 24 kts 244°
2026-04-29 13:07 40.89777 29.30139 309 ft 26 kts 244°
2026-04-29 13:07 40.89697 29.29918 308 ft 28 kts 244°
2026-04-29 13:07 40.89611 29.29683 304 ft 30 kts 243°
2026-04-29 13:07 40.89516 29.29432 303 ft 31 kts 244°
2026-04-29 13:08 40.89437 29.29261 304 ft 14 kts 208°
2026-04-29 13:08 40.89368 29.29268 303 ft 1 kts 154°
2026-04-29 13:08 40.89361 29.29273 303 ft 1 kts 151°
2026-04-29 13:08 40.89354 29.29278 304 ft 4 kts 151°
2026-04-29 13:09 40.89299 29.29321 301 ft 10 kts 136°
2026-04-29 13:09 40.89297 29.29407 302 ft 15 kts 68°
2026-04-29 13:09 40.89416 29.29729 307 ft 73 kts 64°
2026-04-29 13:09 40.89733 29.30584 310 ft 131 kts 64°
2026-04-29 13:10 40.90196 29.31854 421 ft 167 kts 64°
2026-04-29 13:10 40.90686 29.33247 1086 ft 168 kts 63°
2026-04-29 13:10 40.91193 29.34635 1775 ft 172 kts 62°
2026-04-29 13:10 40.91736 29.36090 2329 ft 184 kts 63°
2026-04-29 13:11 40.92334 29.37698 2669 ft 206 kts 63°
2026-04-29 13:11 40.92993 29.39477 3064 ft 226 kts 63°
2026-04-29 13:11 40.93721 29.41447 3603 ft 246 kts 63°
2026-04-29 13:11 40.94483 29.43511 4356 ft 256 kts 63°
2026-04-29 13:12 40.95280 29.45671 5139 ft 264 kts 63°
2026-04-29 13:12 40.96093 29.47883 6002 ft 269 kts 63°